Weather History for KIAH - January, 2013

Change the Weather History Date:

Sunday, January 27, 2013

  Actual Average Record
Temperature  
Mean Temperature 67 °F -  
Max Temperature 77 °F 61 °F 81 °F (2015)
Min Temperature 57 °F 43 °F 32 °F (2004)
Cooling Degree Days 2    
Growing Degree Days 17 (Base 50)    
Moisture  
Dew Point 63 °F    
Average Humidity 82    
Maximum Humidity 100    
Minimum Humidity 61    
Precipitation  
Precipitation 0.00 in - - ()
Sea Level Pressure  
Sea Level Pressure 30.10 in    
Wind  
Wind Speed 8 mph (SSE)    
Max Wind Speed 20 mph    
Max Gust Speed 25 mph    
Visibility 10 miles    
Events Fog , Rain    
Averages and records for this station are not official NWS values.
T = Trace of Precipitation, MM = Missing Value Source: NWS Daily Summary

Daily Weather History Graph

Daily Weather History Graph

Search for Another Location

Airport or City:

Trip Planner

Search our weather history database for the weather conditions in past years. The results will help you decide how hot, cold, wet, or windy it might be!

Date:

Astronomy

Jan. 27, 2013 Rise Set
Actual Time 7:14 AM CST 5:54 PM CST
Civil Twilight 6:48 AM CST 6:19 PM CST
Nautical Twilight 6:20 AM CST 6:48 PM CST
Astronomical Twilight 5:51 AM CST 7:17 PM CST
Moon 6:41 PM CST (1/27) 7:13 AM CST (1/27)
Length of Visible Light 11h 31m
Length of Day
10h 40m
Full, 100% of the Moon is Illuminated
Jan 27
Full
Feb 3
Last Quarter
Feb 10
New
Feb 17
First Quarter
Feb 25
Full

Hourly Weather History & Observations

Time (CST) Temp. Dew Point Humidity Pressure Visibility Wind Dir Wind Speed Gust Speed Precip Events Conditions
12:53 AM 57.9 °F 57.0 °F 97% 30.14 in 10.0 mi SE 3.5 mph - N/A   Scattered Clouds
1:53 AM 57.9 °F 57.9 °F 100% 30.13 in 10.0 mi SSE 4.6 mph - N/A   Partly Cloudy
2:53 AM 57.9 °F 57.0 °F 97% 30.12 in 10.0 mi SE 4.6 mph - N/A   Scattered Clouds
3:53 AM 61.0 °F 59.0 °F 93% 30.11 in 10.0 mi SSE 4.6 mph - N/A   Mostly Cloudy
4:53 AM 60.1 °F 59.0 °F 96% 30.10 in 8.0 mi Calm Calm - N/A   Mostly Cloudy
5:53 AM 61.0 °F 60.1 °F 97% 30.11 in 8.0 mi Calm Calm - N/A   Mostly Cloudy
6:53 AM 57.9 °F 57.9 °F 100% 30.12 in 8.0 mi Calm Calm - N/A Fog Patches of Fog
7:35 AM 60.8 °F 59.0 °F 94% 30.13 in 7.0 mi Calm Calm - N/A   Mostly Cloudy
7:53 AM 61.0 °F 61.0 °F 100% 30.13 in 7.0 mi SE 3.5 mph - N/A   Mostly Cloudy
8:13 AM 62.6 °F 60.8 °F 94% 30.13 in 8.0 mi ESE 5.8 mph - N/A   Mostly Cloudy
8:53 AM 66.0 °F 63.0 °F 90% 30.14 in 8.0 mi SE 6.9 mph - N/A   Mostly Cloudy
9:25 AM 66.2 °F 62.6 °F 88% 30.14 in 10.0 mi SSE 8.1 mph - N/A   Mostly Cloudy
9:43 AM 68.0 °F 62.6 °F 83% 30.15 in 10.0 mi SE 11.5 mph - N/A   Mostly Cloudy
9:53 AM 69.1 °F 63.0 °F 81% 30.15 in 10.0 mi SSE 9.2 mph - N/A   Mostly Cloudy
10:01 AM 69.8 °F 62.6 °F 78% 30.15 in 10.0 mi SSE 10.4 mph - N/A   Mostly Cloudy
10:22 AM 71.6 °F 64.4 °F 78% 30.15 in 10.0 mi SSE 16.1 mph 23.0 mph N/A   Mostly Cloudy
10:53 AM 72.0 °F 64.0 °F 76% 30.15 in 10.0 mi SSE 13.8 mph - N/A   Mostly Cloudy
11:53 AM 75.0 °F 64.0 °F 69% 30.13 in 10.0 mi South 12.7 mph 24.2 mph N/A   Mostly Cloudy
12:53 PM 75.0 °F 63.0 °F 66% 30.09 in 10.0 mi SSE 15.0 mph 20.7 mph N/A   Mostly Cloudy
1:25 PM 75.2 °F 62.6 °F 65% 30.07 in 10.0 mi South 11.5 mph 20.7 mph 0.00 in Rain Light Rain
1:53 PM 77.0 °F 63.0 °F 62% 30.06 in 10.0 mi SSE 19.6 mph 23.0 mph 0.00 in   Mostly Cloudy
2:53 PM 75.0 °F 64.0 °F 69% 30.05 in 10.0 mi SSE 17.3 mph 25.3 mph N/A   Overcast
3:40 PM 73.4 °F 64.4 °F 73% 30.05 in 10.0 mi South 16.1 mph 25.3 mph 0.00 in   Overcast
3:50 PM 73.4 °F 64.4 °F 73% 30.05 in 10.0 mi SSE 18.4 mph 24.2 mph 0.00 in   Overcast
3:53 PM 73.9 °F 64.9 °F 73% 30.05 in 10.0 mi SSE 17.3 mph 24.2 mph 0.00 in   Overcast
4:53 PM 73.0 °F 64.9 °F 76% 30.05 in 10.0 mi SSE 15.0 mph - N/A   Mostly Cloudy
5:53 PM 72.0 °F 66.0 °F 81% 30.06 in 10.0 mi SSE 11.5 mph - 0.00 in   Overcast
6:53 PM 72.0 °F 66.0 °F 81% 30.07 in 10.0 mi SSE 13.8 mph - 0.00 in   Overcast
7:53 PM 71.1 °F 64.9 °F 81% 30.08 in 10.0 mi SSE 10.4 mph 20.7 mph N/A   Overcast
8:53 PM 71.1 °F 64.9 °F 81% 30.08 in 10.0 mi SSE 13.8 mph 21.9 mph N/A   Overcast
9:53 PM 70.0 °F 64.9 °F 84% 30.08 in 10.0 mi South 11.5 mph - N/A   Overcast
10:32 PM 71.6 °F 64.4 °F 78% 30.08 in 10.0 mi SSE 15.0 mph - N/A   Overcast
10:53 PM 71.1 °F 64.0 °F 78% 30.09 in 10.0 mi South 16.1 mph 23.0 mph N/A   Overcast
11:53 PM 71.6 °F 64.4 °F 78% 30.09 in 10.0 mi South 11.5 mph 19.6 mph N/A   Overcast